"Pseudo-MPEC" for P22bzIl

Created 2025 Jul 7 22:35:12 UT using Find_Orb

Click here for an explanation of pseudo-MPECs

 
 Astrometry: 
     P22bzIl* C2025 07 04.45716722 01 42.453+17 18 58.36   ~74KK 22.03wXNEOCPF52
     P22bzIl  C2025 07 04.46935222 01 43.087+17 19 17.59   ~74KK 22.16wXNEOCPF52
     P22bzIl  C2025 07 04.48185522 01 43.741+17 19 37.85   ~74KK 22.10wXNEOCPF52
     P22bzIl  C2025 07 04.49415522 01 44.379+17 19 57.53   ~74KK 22.42wXNEOCPF52
     P22bzIl KC2025 07 05.30693822 02 29.04 +17 41 20.2    ~7585 21.7 GVNEOCPH21
     P22bzIl KC2025 07 05.30838222 02 29.11 +17 41 22.3    ~7585 21.9 GVNEOCPH21
     P22bzIl KC2025 07 05.31127022 02 29.26 +17 41 27.2    ~7585 22.0 GVNEOCPH21
     P22bzIl 2C2025 07 05.51866122 02 40.472+17 46 57.71   ~76NK 22.0 GWNEOCPT12
     P22bzIl 2C2025 07 05.52183422 02 40.634+17 47 02.76   ~76NK 21.8 GWNEOCPT12
     P22bzIl KC2025 07 06.29393422 03 22.321+18 07 15.11   ~767o 22.1 GWNEOCPH01
     P22bzIl  C2025 07 06.29897922 03 22.570+18 07 23.20   ~767o 21.9 GWNEOCPH01
     P22bzIl  C2025 07 06.31227422 03 23.240+18 07 44.13   ~767o 21.7 GWNEOCPH01
     P22bzIl KC2025 07 06.31477722 03 23.16 +18 07 48.0    ~7685 21.6 GVNEOCPH21
     P22bzIl  C2025 07 06.31598122 03 23.417+18 07 50.02   ~767o 22.5 GWNEOCPH01
     P22bzIl KC2025 07 06.31830922 03 23.34 +18 07 53.0    ~7685 22.2 GVNEOCPH21

Station data:
(F52) Pan-STARRS 2, Haleakala  (N20.707382 W156.255910)  US/Hawaii.
   Observers J. Bulger, T. Dukes, T. Lowe, A. Schultz, M. Willman. Measurers
   K. Chambers, S. Chastel, T. de Boer, L. Denneau, J. Fairlamb, H.
   Flewelling, M. Huber, C.-C. Lin, E. Magnier, Y. Ramanjooloo, R. Wainscoat,
   R. Weryk. 1.8-m Ritchey-Chrétien + CCD.
(H01) Magdalena Ridge Observatory, Socorro  (N33.984833 W107.189333)  US/New
   Mexico.  Observers W. H. Ryan, E. V. Ryan. Measurer W. H. Ryan. 2.4-m
   f/8.9 reflector + CCD.
(H21) Astronomical Research Observatory, Westfield  (N39.483054 W87.968270)
   US/Illinois.  Observer R. Holmes. Measurers S. Foglia, L. Buzzi, T.
   Linder, R. Holmes. 0.40-m f/5.32 astrograph + CCD.
(T12) Mauna Kea-UH/Tholen NEO Follow-Up (2.24-m)  (N19.822991 W155.469434)
   US/Hawaii.  Observer Y. Ramanjooloo. 2.24-m f/10.1 University of Hawaii
   reflector.

Orbital elements:  P22bzIl
   Perihelion 2025 Aug 16.73307 +/- 5.12 TT = 17:35:37 (JD 2460904.23307)
Epoch 2025 Jul  6.0 TT = JDT 2460862.5   Earth MOID: 0.6462      AutoNEOCP
M 351.29903568 +/- 2.9              (J2000 ecliptic)
n   0.20849087 +/- 0.0454           Peri.   90.02612 +/- 5.0
a   2.81672646 +/- 0.409            Node   242.84233 +/- 2.4
e   0.4463933 +/- 0.0655            Incl.   15.64012 +/- 0.6
P   4.72734                H 20.12  G  0.15   U 10.7
q 1.55935849 +/- 0.0418    Q 4.07409444 +/- 0.775
From 15 observations 2025 July 4-6 (44.7 hr); mean residual 0".16
Residuals in arcseconds: 
250704 F52  .03-  .00     250705 H21  .20+  .02+    250706 H01  .04-  .13+    
250704 F52  .06-  .22-    250705 H21  .23+  .34+    250706 H01  .02-  .01+    
250704 F52  .01-  .09+    250705 T12  .02-  .03-    250706 H21  .23-  .39+    
250704 F52  .00   .17+    250705 T12  .03+  .00     250706 H01  .15-  .04+    
250705 H21  .26+  .21+    250706 H01  .04+  .03+    250706 H21  .17-  .18-    

Ephemerides (geocentric):
Date (UTC) HH   RA             Dec           delta  r     elong  mag " sig PA
---- --------  ------------   ------------  ------ ------ -----  --- --------
2025 07 07 23  22 04 48.317   +18 50 42.31  .82699 1.6013 120.2 22.1 1.92 121
2025 07 08 00  22 04 50.432   +18 51 47.17  .82675 1.6013 120.3 22.1 1.97 121
2025 07 08 01  22 04 52.544   +18 52 52.01  .82651 1.6012 120.3 22.1 2.03 121
2025 07 08 02  22 04 54.654   +18 53 56.84  .82627 1.6011 120.3 22.1 2.09 121
2025 07 08 03  22 04 56.761   +18 55 01.65  .82602 1.6010 120.3 22.1 2.15 121
2025 07 08 04  22 04 58.866   +18 56 06.44  .82578 1.6009 120.3 22.1 2.21 121
2025 07 08 05  22 05 00.968   +18 57 11.21  .82554 1.6008 120.3 22.1 2.27 121
2025 07 08 06  22 05 03.068   +18 58 15.97  .82530 1.6007 120.3 22.1 2.33 121
2025 07 08 07  22 05 05.165   +18 59 20.71  .82506 1.6007 120.4 22.1 2.40 121
2025 07 08 08  22 05 07.260   +19 00 25.44  .82482 1.6006 120.4 22.1 2.46 121
2025 07 08 09  22 05 09.353   +19 01 30.14  .82458 1.6005 120.4 22.1 2.53 121
2025 07 08 10  22 05 11.443   +19 02 34.84  .82433 1.6004 120.4 22.1 2.59 121
2025 07 08 11  22 05 13.530   +19 03 39.51  .82409 1.6003 120.4 22.1 2.66 121
2025 07 08 12  22 05 15.615   +19 04 44.17  .82385 1.6002 120.4 22.1 2.73 121
2025 07 08 13  22 05 17.698   +19 05 48.81  .82361 1.6001 120.5 22.1 2.79 121
2025 07 08 14  22 05 19.778   +19 06 53.43  .82337 1.6001 120.5 22.1 2.86 121
2025 07 08 15  22 05 21.856   +19 07 58.04  .82313 1.6000 120.5 22.1 2.93 121
2025 07 08 16  22 05 23.931   +19 09 02.63  .82289 1.5999 120.5 22.1 3.01 121
2025 07 08 17  22 05 26.004   +19 10 07.20  .82265 1.5998 120.5 22.1 3.08 121
2025 07 08 18  22 05 28.074   +19 11 11.75  .82241 1.5997 120.5 22.1 3.15 121
2025 07 08 19  22 05 30.142   +19 12 16.29  .82218 1.5996 120.5 22.1 3.22 121
2025 07 08 20  22 05 32.208   +19 13 20.81  .82194 1.5996 120.6 22.1 3.30 121
2025 07 08 21  22 05 34.271   +19 14 25.31  .82170 1.5995 120.6 22.1 3.38 121
2025 07 08 22  22 05 36.331   +19 15 29.80  .82146 1.5994 120.6 22.1 3.45 121
2025 07 08 23  22 05 38.389   +19 16 34.26  .82122 1.5993 120.6 22.1 3.53 121
2025 07 09 00  22 05 40.444   +19 17 38.71  .82098 1.5992 120.6 22.1 3.61 121
2025 07 09 01  22 05 42.497   +19 18 43.14  .82075 1.5991 120.6 22.1 3.69 121
2025 07 09 02  22 05 44.548   +19 19 47.56  .82051 1.5990 120.6 22.1 3.77 121
2025 07 09 03  22 05 46.596   +19 20 51.96  .82027 1.5990 120.7 22.1 3.85 121
2025 07 09 04  22 05 48.642   +19 21 56.33  .82003 1.5989 120.7 22.1 3.93 121
2025 07 09 05  22 05 50.685   +19 23 00.69  .81979 1.5988 120.7 22.1 4.01 121
2025 07 09 06  22 05 52.725   +19 24 05.04  .81956 1.5987 120.7 22.1 4.10 121
2025 07 09 07  22 05 54.763   +19 25 09.36  .81932 1.5986 120.7 22.1 4.18 121
2025 07 09 08  22 05 56.799   +19 26 13.67  .81908 1.5985 120.7 22.1 4.27 120
2025 07 09 09  22 05 58.832   +19 27 17.96  .81885 1.5985 120.7 22.1 4.36 120
2025 07 09 10  22 06 00.863   +19 28 22.23  .81861 1.5984 120.8 22.1 4.44 120
2025 07 09 11  22 06 02.891   +19 29 26.48  .81837 1.5983 120.8 22.1 4.53 120
2025 07 09 12  22 06 04.917   +19 30 30.71  .81814 1.5982 120.8 22.1 4.62 120
2025 07 09 13  22 06 06.940   +19 31 34.93  .81790 1.5981 120.8 22.1 4.71 120
2025 07 09 14  22 06 08.961   +19 32 39.12  .81767 1.5981 120.8 22.1 4.80 120
2025 07 09 15  22 06 10.979   +19 33 43.30  .81743 1.5980 120.8 22.1 4.89 120
2025 07 09 16  22 06 12.994   +19 34 47.46  .81720 1.5979 120.9 22.1 4.99 120
2025 07 09 17  22 06 15.008   +19 35 51.60  .81696 1.5978 120.9 22.1 5.08 120
2025 07 09 18  22 06 17.018   +19 36 55.73  .81673 1.5977 120.9 22.1 5.18 120
2025 07 09 19  22 06 19.027   +19 37 59.83  .81649 1.5976 120.9 22.1 5.27 120
2025 07 09 20  22 06 21.032   +19 39 03.92  .81626 1.5976 120.9 22.1 5.37 120
2025 07 09 21  22 06 23.035   +19 40 07.98  .81602 1.5975 120.9 22.1 5.47 120
2025 07 09 22  22 06 25.036   +19 41 12.03  .81579 1.5974 120.9 22.1 5.57 120